User: anonymous   Login
Location: Corcelles
(46.1547°N, 4.7234°E)
Time: 22:57:44
(UTC+00:00)
Language:

ARIANE 5 R/B - Orbit

View from above orbital plane
View from above orbital plane
View from above satellite
View from above satellite

Ground track
Ground track

The orbit data is extracted from the following two-line orbital elements,

1 27387U 02009B   20263.33732289 -.00000026 +00000-0 +63080-5 0  9999
2 27387 098.6177 216.9461 0031910 200.9406 159.0474 14.36000205972303
Epoch (UTC): 19 September 2020 08:05:44
Eccentricity: 0.0031910
inclination: 98.6177°
perigee height: 749 km
apogee height: 794 km
right ascension of ascending node: 216.9461°
argument of perigee: 200.9406°
revolutions per day: 14.36000205
mean anomaly at epoch: 159.0474°
orbit number at epoch: 97230

The dashed part of the orbit path shows where the satellite is in the earth's shadow,  

DLR